Location: Brookfield Center
(41.2406°N, 80.5579°W)
Time: 18:53:04
(UTC+00:00)

CZ-4B DEB - Pass Details

Date: 18 January 2020
Orbit: 840 x 862 km, 99.1° (Epoch: 25 February)

Event Time Altitude Azimuth Distance (km) Brightness Sun altitude
Rises 10:51:09 0° 13° (NNE) 3,448 7.4 -21.0°
Reaches altitude 10° 10:53:32 10° 13° (NNE) 2,505 6.7 -20.5°
Maximum altitude 10:59:06 84° 287° (WNW) 867 4.1 -19.5°
Drops below altitude 10° 11:04:37 10° 198° (SSW) 2,477 6.6 -18.5°
Sets 11:06:58 0° 198° (SSW) 3,405 7.3 -18.1°
